FW5274 Weather Reports


Display with metric or nautical units.
time (UTC)temp
F
wind
direction
speed
MPH
gust
MPH
rain 1hr
in
rain 24hr
in
rain mn
in
humidity
%
barometer
mb
20260902043108 56 66 2.0 4.0 0.00 0.00 0.00 71 1013.7
20260902041530 57 30 0.0 7.0 0.00 0.00 0.00 68 1013.3
20260902034530 58 51 2.0 9.0 0.00 0.00 0.00 66 1013.1
20260902031537 59 340 4.0 10.0 0.00 0.00 0.00 63 1012.5
20260902024531 60 19 1.0 7.0 0.00 0.00 0.00 62 1012.5
20260902023030 60 29 4.0 8.0 0.00 0.00 0.00 62 1012.4
20260902021538 61 52 4.0 9.0 0.00 0.00 0.00 62 1012.2
20260902014607 63 20 2.0 9.0 0.00 0.00 0.00 58 1011.8
20260902013143 65 16 3.0 13.0 0.00 0.00 0.00 55 1011.7
20260902011536 67 7 5.0 11.0 0.00 0.00 0.00 53 1011.5
20260902010144 68 4 7.0 14.0 0.00 0.00 0.00 52 1011.1
20260902004535 70 14 6.0 13.0 0.00 0.00 0.00 50 1011.1
20260902003029 72 21 6.0 13.0 0.00 0.00 0.00 49 1011.1
20260902001542 72 16 5.0 10.0 0.00 0.00 0.00 49 1011.2
20260901234531 70 49 6.0 13.0 0.00 0.00 0.00 55 1011.3
20260901233106 70 52 6.0 12.0 0.00 0.00 0.00 55 1011.4
20260901231608 70 44 5.0 9.0 0.00 0.00 0.00 55 1011.6
20260901230032 70 22 5.0 10.0 0.00 0.00 0.00 54 1011.6
20260901224534 70 20 5.0 10.0 0.00 0.00 0.00 53 1011.5
20260901220036 75 21 5.0 9.0 0.00 0.00 0.00 48 1011.2
20260901214537 75 45 7.0 13.0 0.00 0.00 0.00 49 1011.2
20260901213035 74 67 5.0 11.0 0.00 0.00 0.00 49 1011.4
20260901211533 74 61 5.0 10.0 0.00 0.00 0.00 49 1011.6
20260901210035 75 56 6.0 13.0 0.00 0.00 0.00 48 1011.7
20260901204532 75 63 6.0 11.0 0.00 0.00 0.00 48 1011.8
20260901203036 75 53 5.0 10.0 0.00 0.00 0.00 48 1011.9
20260901200044 75 61 5.0 10.0 0.00 0.00 0.00 47 1012.3
20260901200037 75 44 5.0 10.0 0.00 0.00 0.00 46 1012.5
20260901181533 69 79 2.0 7.0 0.00 0.00 0.00 56 1013.4
20260901180030 69 103 3.0 7.0 0.00 0.00 0.00 58 1013.5
20260901174532 68 113 2.0 5.0 0.00 0.00 0.00 61 1013.3
20260901173032 66 83 1.0 5.0 0.00 0.00 0.00 63 1013.2
20260901171532 64 68 1.0 6.0 0.00 0.00 0.00 69 1013.2
20260901170032 61 48 2.0 4.0 0.00 0.00 0.00 71 1013.3
20260901164534 60 63 1.0 5.0 0.00 0.00 0.00 72 1013.3
20260901163036 60 73 1.0 4.0 0.00 0.00 0.00 73 1013.3
20260901161529 59 99 2.0 6.0 0.00 0.00 0.00 73 1013.3
20260901160141 58 102 4.0 7.0 0.00 0.00 0.00 75 1013.2
20260901154534 57 107 3.0 6.0 0.00 0.00 0.00 76 1013.1
20260901153032 56 110 3.0 6.0 0.00 0.00 0.00 76 1013.1
20260901151609 55 110 2.0 4.0 0.00 0.00 0.00 76 1013.0
20260901141641 53 113 1.0 4.0 0.00 0.00 0.00 70 1012.7
20260901134535 53 157 1.0 2.0 0.00 0.00 0.00 66 1012.5
20260901133034 54 152 2.0 3.0 0.00 0.00 0.00 64 1012.4
20260901131531 54 150 2.0 3.0 0.00 0.00 0.00 62 1012.4
20260901130034 55 157 2.0 3.0 0.00 0.00 0.00 61 1012.3
20260901124529 55 190 2.0 3.0 0.00 0.00 0.00 60 1012.2
20260901123030 55 202 0.0 2.0 0.00 0.00 0.00 58 1012.1
20260901121533 56 202 0.0 2.0 0.00 0.00 0.00 58 1012.1
20260901120034 56 195 2.0 3.0 0.00 0.00 0.00 57 1012.2
20260901114531 56 202 3.0 4.0 0.00 0.00 0.00 56 1012.3
20260901113053 56 199 3.0 4.0 0.00 0.00 0.00 55 1012.3
20260901111531 57 198 2.0 4.0 0.00 0.00 0.00 55 1012.2
20260901110035 57 147 2.0 4.0 0.00 0.00 0.00 54 1012.2
20260901104650 57 156 3.0 4.0 0.00 0.00 0.00 53 1012.2
20260901103031 58 132 3.0 5.0 0.00 0.00 0.00 50 1012.3
20260901101535 59 166 2.0 5.0 0.00 0.00 0.00 47 1012.3
20260901100030 59 151 3.0 5.0 0.00 0.00 0.00 45 1012.3
20260901094608 59 157 3.0 5.0 0.00 0.00 0.00 45 1012.3
20260901093032 59 112 1.0 4.0 0.00 0.00 0.00 45 1012.4
20260901091534 59 78 2.0 3.0 0.00 0.00 0.00 46 1012.4
20260901090036 59 67 3.0 4.0 0.00 0.00 0.00 46 1012.3
20260901084536 60 30 3.0 6.0 0.00 0.00 0.00 43 1012.4
20260901081536 60 274 2.0 3.0 0.00 0.00 0.00 40 1012.7
20260901074531 61 247 2.0 3.0 0.00 0.00 0.00 40 1012.7
20260901071652 61 266 1.0 3.0 0.00 0.00 0.00 39 1012.6
20260901070145 63 56 0.0 4.0 0.00 0.00 0.00 38 1012.6
20260901064533 63 270 3.0 4.0 0.00 0.00 0.00 37 1012.7
20260901063107 63 263 4.0 5.0 0.00 0.00 0.00 37 1012.9
20260901061535 63 247 4.0 5.0 0.00 0.00 0.00 37 1013.0
20260901060028 63 247 4.0 6.0 0.00 0.00 0.00 37 1013.1
20260901054530 64 247 4.0 5.0 0.00 0.00 0.00 36 1013.2
20260901053031 64 247 4.0 5.0 0.00 0.00 0.00 36 1013.2
20260901051648 65 249 5.0 6.0 0.00 0.00 0.00 36 1013.2
20260901050033 65 253 5.0 6.0 0.00 0.00 0.00 35 1013.2
20260901044536 66 267 4.0 6.0 0.00 0.00 0.00 34 1013.2